Kirtland AFB, NM

2:23 PM MST on December 07, 2016 (GMT -0700)
Albuquerque International Sunport

Weather History for KABQ - September, 2013

Change the Weather History Date:

Friday, September 20, 2013

  Actual Average Record
Temperature  
Mean Temperature 71 °F 68 °F  
Max Temperature 80 °F 79 °F 93 °F (1956)
Min Temperature 61 °F 56 °F 34 °F (1912)
Degree Days  
Heating Degree Days 0 1  
Month to date heating degree days 0 6  
Since 1 July heating degree days 0 6  
Cooling Degree Days 6 4  
Month to date cooling degree days 172 131  
Year to date cooling degree days 1547 1288  
Growing Degree Days 22 (Base 50)    
Moisture  
Dew Point 50 °F    
Average Humidity 51    
Maximum Humidity 67    
Minimum Humidity 35    
Precipitation  
Precipitation 0.00 in 0.03 in 0.95 in (1974)
Month to date precipitation 3.39 0.71  
Year to date precipitation 7.28 6.99  
Snow  
Snow 0.00 in - - ()
Month to date snowfall 0.0  
Since 1 July snowfall 0.0  
Since 1 September snowfall 0.0  
Snow Depth 0.00 in    
Sea Level Pressure  
Sea Level Pressure 29.92 in    
Wind  
Wind Speed 12 mph (East)    
Max Wind Speed 31 mph    
Max Gust Speed 39 mph    
Visibility 10 miles    
Events      
T = Trace of Precipitation, MM = Missing Value Source: NWS Daily Summary

Daily Weather History Graph

Daily Weather History Graph

Search for Another Location

Airport or City:

Trip Planner

Search our weather history database for the weather conditions in past years. The results will help you decide how hot, cold, wet, or windy it might be!

Date:

Astronomy

Sep. 20, 2013 Rise Set
Actual Time 6:53 AM MDT 7:05 PM MDT
Civil Twilight 6:27 AM MDT 7:30 PM MDT
Nautical Twilight 5:58 AM MDT 8:00 PM MDT
Astronomical Twilight 5:28 AM MDT 8:30 PM MDT
Moon 7:46 PM MDT (9/20) 8:06 AM MDT (9/20)
Length of Visible Light 13h 03m
Length of Day
12h 12m
Full, 98% of the Moon is Illuminated
Sep 20
Full
Sep 26
Last Quarter
Oct 4
New
Oct 11
First Quarter
Oct 18
Full

Hourly Weather History & Observations

Time (MDT) Temp. Dew Point Humidity Pressure Visibility Wind Dir Wind Speed Gust Speed Precip Events Conditions
12:52 AM 63.0 °F 48.9 °F 60% 29.87 in 10.0 mi SE 6.9 mph - N/A   Partly Cloudy
1:52 AM 66.9 °F 48.0 °F 51% 29.87 in 10.0 mi ESE 19.6 mph 28.8 mph N/A   Partly Cloudy
2:52 AM 64.9 °F 48.9 °F 56% 29.87 in 10.0 mi East 27.6 mph 36.8 mph N/A   Clear
3:52 AM 63.0 °F 48.9 °F 60% 29.89 in 10.0 mi ESE 27.6 mph 33.4 mph N/A   Scattered Clouds
4:52 AM 63.0 °F 51.1 °F 65% 29.90 in 10.0 mi East 25.3 mph 34.5 mph N/A   Scattered Clouds
5:52 AM 63.0 °F 51.1 °F 65% 29.91 in 10.0 mi East 19.6 mph 26.5 mph N/A   Partly Cloudy
6:52 AM 63.0 °F 50.0 °F 63% 29.93 in 10.0 mi East 20.7 mph - N/A   Scattered Clouds
7:52 AM 64.0 °F 48.9 °F 58% 29.95 in 10.0 mi NE 12.7 mph - N/A   Partly Cloudy
8:52 AM 64.9 °F 50.0 °F 58% 29.97 in 10.0 mi North 9.2 mph - N/A   Partly Cloudy
9:52 AM 69.1 °F 50.0 °F 51% 29.98 in 10.0 mi NNW 4.6 mph - N/A   Partly Cloudy
10:52 AM 72.0 °F 50.0 °F 46% 29.97 in 10.0 mi Variable 6.9 mph - N/A   Partly Cloudy
11:52 AM 73.9 °F 50.0 °F 43% 29.95 in 10.0 mi Variable 4.6 mph - N/A   Partly Cloudy
12:52 PM 75.0 °F 50.0 °F 41% 29.95 in 10.0 mi SSW 6.9 mph - N/A   Partly Cloudy
1:52 PM 75.9 °F 50.0 °F 40% 29.91 in 10.0 mi Variable 5.8 mph - N/A   Scattered Clouds
2:52 PM 78.1 °F 50.0 °F 37% 29.88 in 10.0 mi Calm Calm - N/A   Scattered Clouds
3:52 PM 78.1 °F 48.9 °F 36% 29.87 in 10.0 mi Variable 4.6 mph - N/A   Scattered Clouds
4:52 PM 78.1 °F 51.1 °F 39% 29.87 in 10.0 mi ESE 10.4 mph - N/A   Scattered Clouds
5:52 PM 75.9 °F 52.0 °F 43% 29.89 in 10.0 mi SE 15.0 mph - N/A   Mostly Cloudy
6:52 PM 73.0 °F 52.0 °F 48% 29.90 in 10.0 mi ESE 11.5 mph - N/A   Mostly Cloudy
7:52 PM 72.0 °F 52.0 °F 49% 29.91 in 10.0 mi East 12.7 mph - N/A   Scattered Clouds
8:52 PM 69.1 °F 51.1 °F 53% 29.94 in 10.0 mi East 12.7 mph - N/A   Partly Cloudy
9:52 PM 68.0 °F 50.0 °F 52% 29.94 in 10.0 mi East 16.1 mph - N/A   Partly Cloudy
10:52 PM 68.0 °F 50.0 °F 52% 29.94 in 10.0 mi East 15.0 mph - N/A   Clear
11:52 PM 66.0 °F 51.1 °F 59% 29.96 in 10.0 mi Variable 3.5 mph - N/A   Clear